Location: Boiro
(42.6475°N, 8.8834°W)
Time: 14:46:00
(UTC+01:00)

Vanguard 2 - Pass Details

Date: 05 December 2021
Orbit: 553 x 2936 km, 32.9° (Epoch: 21 January)

Event Time Altitude Azimuth Distance (km) Brightness Sun altitude
Rises 19:29:56 0° 263° (W) 3,848 12.9 -15.6°
Reaches altitude 10° 19:32:54 10° 248° (WSW) 3,200 12.0 -16.2°
Maximum altitude 19:39:05 23° 199° (SSW) 2,926 10.8 -17.3°
Drops below altitude 10° 19:47:43 10° 154° (SSE) 4,631 11.4 -18.8°
Sets 19:53:14 0° 143° (SE) 6,053 11.9 -19.8°
